CSZ3694 ZGSD-ZSHC

Flight info

Callsign CSZ3694
Flight time 2h 11m
Altitude 37100
Route ZAO DCT GUBLO W22 SHL G471 EGEDA/K0833S1160 G471 PLT/K0811S1130 A599 ELNEX ELNEX91
Aircraft A319/M-SDE3FGHIRWY/LB1

Departure

Time 2026-04-14 11:30
Airport Zhuhai Jinwan Airport (ZGSD)

Arrival

Time 2026-04-14 13:41
Airport Hangzhou Xiaoshan International Airport (ZSHC)
Time Latitude Longitude Altitude Speed Heading
2026-04-14 11:03 22.00902 113.37502 30 ft 0 kts 174°
2026-04-14 11:23 22.00899 113.37502 27 ft 2 kts 174°
2026-04-14 11:24 22.00867 113.37504 29 ft 7 kts 179°
2026-04-14 11:24 22.00815 113.37518 28 ft 9 kts 134°
2026-04-14 11:24 22.00828 113.37581 28 ft 10 kts 45°
2026-04-14 11:24 22.00884 113.37637 28 ft 12 kts 45°
2026-04-14 11:25 22.00944 113.37702 29 ft 13 kts 45°
2026-04-14 11:25 22.01013 113.37775 28 ft 15 kts 44°
2026-04-14 11:25 22.01090 113.37857 28 ft 16 kts 44°
2026-04-14 11:25 22.01174 113.37946 28 ft 18 kts 44°
2026-04-14 11:26 22.01267 113.38045 28 ft 19 kts 44°
2026-04-14 11:26 22.01366 113.38150 28 ft 21 kts 45°
2026-04-14 11:26 22.01474 113.38262 28 ft 22 kts 44°
2026-04-14 11:26 22.01588 113.38382 28 ft 24 kts 44°
2026-04-14 11:27 22.01703 113.38504 28 ft 22 kts 46°
2026-04-14 11:27 22.01805 113.38616 28 ft 20 kts 45°
2026-04-14 11:27 22.01908 113.38727 27 ft 22 kts 45°
2026-04-14 11:27 22.02003 113.38826 27 ft 13 kts 43°
2026-04-14 11:28 22.02047 113.38884 27 ft 9 kts 70°
2026-04-14 11:28 22.02023 113.38945 26 ft 11 kts 130°
2026-04-14 11:28 22.01964 113.39008 28 ft 8 kts 140°
2026-04-14 11:28 22.01917 113.38986 26 ft 6 kts 226°
2026-04-14 11:29 22.01894 113.38961 26 ft 20 kts 225°
2026-04-14 11:29 22.01657 113.38711 28 ft 75 kts 224°
2026-04-14 11:29 22.01152 113.38178 27 ft 127 kts 224°
2026-04-14 11:29 22.00428 113.37400 122 ft 163 kts 222°
2026-04-14 11:30 21.99622 113.36494 699 ft 169 kts 222°
2026-04-14 11:30 21.98815 113.35560 1320 ft 173 kts 224°
2026-04-14 11:30 21.97999 113.34626 2093 ft 170 kts 224°
2026-04-14 11:30 21.97099 113.33719 2486 ft 189 kts 219°
2026-04-14 11:31 21.96044 113.32726 2888 ft 213 kts 219°
2026-04-14 11:31 21.94867 113.31612 3341 ft 237 kts 220°
2026-04-14 11:31 21.93592 113.30379 3992 ft 252 kts 221°
2026-04-14 11:31 21.92287 113.29091 4880 ft 257 kts 223°
2026-04-14 11:32 21.90960 113.27782 5778 ft 260 kts 220°
2026-04-14 11:32 21.89384 113.26787 6629 ft 266 kts 202°
2026-04-14 11:32 21.87542 113.26398 7425 ft 275 kts 184°
2026-04-14 11:32 21.85616 113.26722 8197 ft 286 kts 163°
2026-04-14 11:33 21.83863 113.27787 8970 ft 296 kts 142°
2026-04-14 11:33 21.82544 113.29515 9756 ft 305 kts 120°
2026-04-14 11:33 21.81889 113.31671 10396 ft 313 kts 98°
2026-04-14 11:34 21.83052 113.36115 10682 ft 315 kts 49°
2026-04-14 11:34 21.84699 113.37599 10687 ft 313 kts 26°
2026-04-14 11:34 21.86735 113.38669 10691 ft 337 kts 23°
2026-04-14 11:34 21.88883 113.39775 10690 ft 346 kts 24°
2026-04-14 11:35 21.91055 113.40901 10694 ft 347 kts 24°
2026-04-14 11:35 21.93232 113.42037 10698 ft 348 kts 24°
2026-04-14 11:35 21.95411 113.43174 10687 ft 348 kts 24°
2026-04-14 11:35 21.97587 113.44310 10690 ft 347 kts 24°
2026-04-14 11:36 21.99755 113.45440 10694 ft 348 kts 24°
2026-04-14 11:36 22.01943 113.46582 10692 ft 348 kts 24°
2026-04-14 11:36 22.04121 113.47720 10690 ft 349 kts 24°
2026-04-14 11:36 22.06295 113.48875 10690 ft 349 kts 26°
2026-04-14 11:37 22.08420 113.50161 10695 ft 350 kts 28°
2026-04-14 11:37 22.10495 113.51536 10698 ft 350 kts 30°
2026-04-14 11:37 22.12546 113.52957 10685 ft 349 kts 31°
2026-04-14 11:37 22.14590 113.54392 10693 ft 350 kts 31°
2026-04-14 11:38 22.16635 113.55822 10692 ft 350 kts 31°
2026-04-14 11:38 22.18686 113.57240 10694 ft 350 kts 31°
2026-04-14 11:38 22.20707 113.58622 10694 ft 350 kts 30°
2026-04-14 11:38 22.22774 113.60021 10694 ft 350 kts 30°
2026-04-14 11:39 22.24805 113.61466 10693 ft 351 kts 36°
2026-04-14 11:39 22.26705 113.63171 11120 ft 356 kts 38°
2026-04-14 11:39 22.28620 113.64900 11752 ft 360 kts 38°
2026-04-14 11:39 22.30551 113.66645 12372 ft 365 kts 38°
2026-04-14 11:40 22.32517 113.68423 12977 ft 369 kts 38°
2026-04-14 11:40 22.34497 113.70217 13588 ft 374 kts 38°
2026-04-14 11:40 22.36505 113.72042 14133 ft 379 kts 37°
2026-04-14 11:40 22.38522 113.73875 14688 ft 382 kts 37°
2026-04-14 11:41 22.40560 113.75726 15249 ft 384 kts 37°
2026-04-14 11:41 22.42618 113.77596 15822 ft 387 kts 37°
2026-04-14 11:41 22.44685 113.79476 16404 ft 389 kts 37°
2026-04-14 11:41 22.46760 113.81363 16973 ft 391 kts 37°
2026-04-14 11:42 22.48828 113.83240 17538 ft 394 kts 37°
2026-04-14 11:42 22.50938 113.85156 18090 ft 397 kts 37°
2026-04-14 11:42 22.53053 113.87081 18573 ft 400 kts 36°
2026-04-14 11:42 22.55193 113.89030 19036 ft 403 kts 36°
2026-04-14 11:43 22.57350 113.90997 19516 ft 406 kts 36°
2026-04-14 11:43 22.59514 113.92974 20016 ft 409 kts 36°
2026-04-14 11:43 22.61556 113.94841 20472 ft 412 kts 36°
2026-04-14 11:43 22.63752 113.96848 20955 ft 414 kts 36°
2026-04-14 11:44 22.65966 113.98868 21414 ft 417 kts 36°
2026-04-14 11:44 22.68074 114.01054 21872 ft 424 kts 46°
2026-04-14 11:44 22.69786 114.03678 22342 ft 431 kts 58°
2026-04-14 11:44 22.71012 114.06662 22811 ft 437 kts 71°
2026-04-14 11:45 22.71683 114.09884 23298 ft 441 kts 82°
2026-04-14 11:45 22.72029 114.13187 23708 ft 443 kts 83°
2026-04-14 11:45 22.72373 114.16515 24090 ft 446 kts 83°
2026-04-14 11:45 22.72719 114.19863 24460 ft 449 kts 83°
2026-04-14 11:46 22.73066 114.23235 24832 ft 452 kts 83°
2026-04-14 11:46 22.73410 114.26582 25196 ft 454 kts 83°
2026-04-14 11:46 22.73766 114.29998 25556 ft 457 kts 83°
2026-04-14 11:46 22.74131 114.33477 25927 ft 460 kts 83°
2026-04-14 11:47 22.74486 114.36877 26237 ft 464 kts 83°
2026-04-14 11:47 22.74844 114.40358 26582 ft 466 kts 84°
2026-04-14 11:47 22.75204 114.43869 26935 ft 469 kts 84°
2026-04-14 11:47 22.75564 114.47384 27282 ft 471 kts 84°
2026-04-14 11:48 22.75924 114.50932 27628 ft 474 kts 84°
2026-04-14 11:48 22.76281 114.54487 27971 ft 477 kts 84°
2026-04-14 11:48 22.76642 114.58069 28319 ft 479 kts 84°
2026-04-14 11:48 22.77006 114.61664 28659 ft 482 kts 84°
2026-04-14 11:49 22.77376 114.65290 28998 ft 484 kts 84°
2026-04-14 11:49 22.77747 114.68920 29333 ft 487 kts 84°
2026-04-14 11:49 22.78117 114.72556 29655 ft 490 kts 84°
2026-04-14 11:49 22.78492 114.76246 29978 ft 492 kts 84°
2026-04-14 11:50 22.78874 114.79954 30263 ft 494 kts 84°
2026-04-14 11:50 22.79262 114.83656 30549 ft 496 kts 84°
2026-04-14 11:50 22.79654 114.87372 30841 ft 498 kts 84°
2026-04-14 11:51 22.80441 114.94818 31404 ft 501 kts 84°
2026-04-14 11:51 22.80838 114.98592 31722 ft 502 kts 84°
2026-04-14 11:51 22.81230 115.02353 32131 ft 501 kts 84°
2026-04-14 11:51 22.81616 115.06098 32575 ft 499 kts 84°
2026-04-14 11:52 22.81997 115.09826 33006 ft 497 kts 84°
2026-04-14 11:52 22.82376 115.13535 33430 ft 496 kts 84°
2026-04-14 11:52 22.82756 115.17236 33864 ft 495 kts 84°
2026-04-14 11:52 22.83137 115.20947 34235 ft 494 kts 84°
2026-04-14 11:53 22.83517 115.24636 34584 ft 493 kts 84°
2026-04-14 11:53 22.83895 115.28332 34902 ft 492 kts 84°
2026-04-14 11:53 22.84271 115.32016 35003 ft 491 kts 84°
2026-04-14 11:53 22.84642 115.35666 35024 ft 484 kts 84°
2026-04-14 11:54 22.85245 115.41678 35017 ft 481 kts 85°
2026-04-14 11:54 22.86089 115.50063 35019 ft 482 kts 85°
2026-04-14 11:55 22.86700 115.56133 35023 ft 483 kts 85°
2026-04-14 11:55 22.87431 115.63321 35023 ft 483 kts 84°
2026-04-14 11:56 22.88202 115.70546 35021 ft 482 kts 84°
2026-04-14 11:56 22.88966 115.77730 35021 ft 482 kts 84°
2026-04-14 11:57 22.89729 115.85006 35018 ft 482 kts 84°
2026-04-14 11:57 22.90477 115.92161 35017 ft 482 kts 84°
2026-04-14 11:58 22.91225 115.99359 35014 ft 481 kts 84°
2026-04-14 11:58 22.91981 116.06628 35021 ft 481 kts 84°
2026-04-14 11:59 22.92731 116.13832 35022 ft 480 kts 84°
2026-04-14 11:59 22.93464 116.20930 35019 ft 480 kts 84°
2026-04-14 12:00 22.94215 116.28072 35012 ft 480 kts 81°
2026-04-14 12:00 22.96287 116.34794 35012 ft 478 kts 60°
2026-04-14 12:01 22.98106 116.37801 35012 ft 476 kts 49°
2026-04-14 12:01 23.00365 116.40405 35012 ft 472 kts 38°
2026-04-14 12:01 23.05547 116.44741 35001 ft 470 kts 34°
2026-04-14 12:02 23.10718 116.49017 34999 ft 470 kts 34°
2026-04-14 12:02 23.15923 116.53341 34999 ft 470 kts 34°
2026-04-14 12:03 23.21127 116.57659 34995 ft 470 kts 34°
2026-04-14 12:03 23.26327 116.61967 34992 ft 470 kts 34°
2026-04-14 12:04 23.31531 116.66284 34990 ft 471 kts 34°
2026-04-14 12:04 23.36732 116.70610 34985 ft 471 kts 34°
2026-04-14 12:05 23.41883 116.74903 34987 ft 471 kts 34°
2026-04-14 12:05 23.46718 116.79739 34986 ft 474 kts 44°
2026-04-14 12:06 23.51288 116.84934 34996 ft 475 kts 44°
2026-04-14 12:06 23.55866 116.90121 34993 ft 475 kts 43°
2026-04-14 12:07 23.60423 116.95285 34991 ft 475 kts 44°
2026-04-14 12:07 23.65000 117.00487 34999 ft 475 kts 44°
2026-04-14 12:08 23.69578 117.05706 35001 ft 476 kts 44°
2026-04-14 12:08 23.74146 117.10929 35008 ft 476 kts 44°
2026-04-14 12:09 23.78796 117.16078 35007 ft 476 kts 40°
2026-04-14 12:09 23.83728 117.20878 34996 ft 475 kts 37°
2026-04-14 12:10 23.88745 117.25573 35003 ft 474 kts 38°
2026-04-14 12:10 23.93708 117.30338 35002 ft 475 kts 38°
2026-04-14 12:11 23.98627 117.35184 35000 ft 476 kts 39°
2026-04-14 12:11 24.03504 117.40015 34991 ft 476 kts 39°
2026-04-14 12:12 24.08437 117.44857 34990 ft 476 kts 38°
2026-04-14 12:12 24.13377 117.49694 34988 ft 477 kts 40°
2026-04-14 12:13 24.17916 117.55023 34989 ft 479 kts 45°
2026-04-14 12:13 24.22406 117.60422 34978 ft 480 kts 45°
2026-04-14 12:14 24.26903 117.65820 34975 ft 480 kts 45°
2026-04-14 12:14 24.31410 117.71232 34967 ft 480 kts 45°
2026-04-14 12:15 24.35905 117.76643 34969 ft 480 kts 45°
2026-04-14 12:15 24.40407 117.82057 34963 ft 481 kts 45°
2026-04-14 12:16 24.44920 117.87487 34973 ft 482 kts 45°
2026-04-14 12:16 24.49434 117.92937 34965 ft 483 kts 45°
2026-04-14 12:17 24.53922 117.98364 34965 ft 483 kts 45°
2026-04-14 12:17 24.58454 118.03813 34970 ft 483 kts 44°
2026-04-14 12:18 24.63113 118.09118 34961 ft 482 kts 42°
2026-04-14 12:18 24.67828 118.14374 34975 ft 483 kts 42°
2026-04-14 12:19 24.72522 118.19670 34971 ft 484 kts 43°
2026-04-14 12:19 24.77201 118.25011 34973 ft 484 kts 43°
2026-04-14 12:20 24.81870 118.30352 34978 ft 484 kts 43°
2026-04-14 12:20 24.86543 118.35698 34980 ft 485 kts 43°
2026-04-14 12:21 24.91199 118.41025 34981 ft 485 kts 43°
2026-04-14 12:21 24.95876 118.46387 34987 ft 486 kts 43°
2026-04-14 12:22 25.00564 118.51761 34990 ft 486 kts 43°
2026-04-14 12:22 25.05244 118.57136 34994 ft 486 kts 43°
2026-04-14 12:23 25.09923 118.62515 35018 ft 486 kts 43°
2026-04-14 12:23 25.14468 118.67915 34991 ft 486 kts 45°
2026-04-14 12:24 25.19010 118.73461 34990 ft 487 kts 45°
2026-04-14 12:24 25.23531 118.78968 34996 ft 487 kts 45°
2026-04-14 12:25 25.28103 118.84502 35000 ft 487 kts 45°
2026-04-14 12:25 25.32681 118.90032 34998 ft 487 kts 45°
2026-04-14 12:26 25.37284 118.95538 35003 ft 487 kts 44°
2026-04-14 12:26 25.41955 119.00967 35006 ft 486 kts 43°
2026-04-14 12:27 25.46632 119.06378 34998 ft 486 kts 43°
2026-04-14 12:27 25.51285 119.11808 34999 ft 486 kts 43°
2026-04-14 12:28 25.55927 119.17258 34991 ft 486 kts 44°
2026-04-14 12:28 25.60536 119.22673 34980 ft 487 kts 44°
2026-04-14 12:29 25.65189 119.28133 34969 ft 487 kts 43°
2026-04-14 12:29 25.69841 119.33589 34969 ft 487 kts 43°
2026-04-14 12:30 25.75038 119.38225 34973 ft 476 kts 24°
2026-04-14 12:30 25.81087 119.40909 34959 ft 465 kts 10°
2026-04-14 12:31 25.87285 119.42994 34960 ft 466 kts 10°
2026-04-14 12:31 25.93490 119.45105 34955 ft 467 kts 11°
2026-04-14 12:32 25.99716 119.47230 34997 ft 468 kts 10°
2026-04-14 12:32 26.05937 119.49357 34973 ft 467 kts 10°
2026-04-14 12:33 26.12158 119.51474 34973 ft 467 kts 10°
2026-04-14 12:33 26.18332 119.53571 34964 ft 467 kts 10°
2026-04-14 12:34 26.24609 119.54863 34973 ft 451 kts 353°
2026-04-14 12:34 26.30883 119.54925 34980 ft 450 kts 353°
2026-04-14 12:35 26.37155 119.55005 34979 ft 451 kts 353°
2026-04-14 12:35 26.43431 119.55075 34985 ft 451 kts 353°
2026-04-14 12:36 26.49711 119.55115 34985 ft 451 kts 352°
2026-04-14 12:36 26.55984 119.55147 35019 ft 451 kts 352°
2026-04-14 12:37 26.62225 119.55181 35020 ft 451 kts 352°
2026-04-14 12:37 26.68488 119.55219 35011 ft 450 kts 352°
2026-04-14 12:38 26.77895 119.55281 35041 ft 450 kts 352°
2026-04-14 12:39 26.84158 119.55323 35025 ft 450 kts 352°
2026-04-14 12:39 26.90430 119.55368 35015 ft 450 kts 352°
2026-04-14 12:40 26.96653 119.55403 35022 ft 450 kts 352°
2026-04-14 12:40 27.02922 119.55437 35018 ft 450 kts 352°
2026-04-14 12:41 27.09189 119.55477 35030 ft 450 kts 352°
2026-04-14 12:41 27.15458 119.55523 35029 ft 450 kts 352°
2026-04-14 12:42 27.21734 119.55563 35027 ft 451 kts 352°
2026-04-14 12:42 27.28013 119.55598 35031 ft 450 kts 352°
2026-04-14 12:43 27.34238 119.55607 35038 ft 451 kts 351°
2026-04-14 12:43 27.40526 119.55600 35040 ft 452 kts 351°
2026-04-14 12:44 27.45799 119.55605 35038 ft 453 kts 351°
2026-04-14 12:44 27.52073 119.55637 35039 ft 454 kts 351°
2026-04-14 12:45 27.61555 119.55714 34911 ft 455 kts 351°
2026-04-14 12:45 27.64717 119.55735 34679 ft 454 kts 351°
2026-04-14 12:45 27.68906 119.55765 34377 ft 452 kts 351°
2026-04-14 12:46 27.72048 119.55785 34150 ft 451 kts 351°
2026-04-14 12:46 27.75179 119.55803 33923 ft 449 kts 351°
2026-04-14 12:46 27.77287 119.55815 33748 ft 447 kts 351°
2026-04-14 12:46 27.80355 119.55834 33493 ft 445 kts 350°
2026-04-14 12:47 27.83483 119.55850 33238 ft 443 kts 351°
2026-04-14 12:47 27.86559 119.55865 32983 ft 441 kts 350°
2026-04-14 12:47 27.89622 119.55881 32728 ft 439 kts 350°
2026-04-14 12:47 27.92634 119.55899 32481 ft 437 kts 350°
2026-04-14 12:48 27.95672 119.55929 32236 ft 435 kts 351°
2026-04-14 12:48 27.98689 119.55973 31991 ft 433 kts 351°
2026-04-14 12:48 28.01696 119.56023 31750 ft 431 kts 351°
2026-04-14 12:48 28.04694 119.56076 31506 ft 429 kts 351°
2026-04-14 12:49 28.07669 119.56131 31265 ft 427 kts 351°
2026-04-14 12:49 28.10637 119.56187 31057 ft 426 kts 351°
2026-04-14 12:49 28.13606 119.56289 30823 ft 426 kts 352°
2026-04-14 12:49 28.16572 119.56445 30590 ft 426 kts 352°
2026-04-14 12:50 28.19489 119.56628 30371 ft 425 kts 353°
2026-04-14 12:50 28.25364 119.57010 29893 ft 421 kts 352°
2026-04-14 12:50 28.28284 119.57187 29623 ft 419 kts 352°
2026-04-14 12:51 28.31193 119.57353 29352 ft 417 kts 352°
2026-04-14 12:51 28.34079 119.57514 29126 ft 414 kts 352°
2026-04-14 12:51 28.36942 119.57670 28851 ft 411 kts 352°
2026-04-14 12:51 28.39793 119.57823 28586 ft 408 kts 352°
2026-04-14 12:52 28.42628 119.57975 28329 ft 407 kts 352°
2026-04-14 12:52 28.45435 119.58128 28077 ft 405 kts 352°
2026-04-14 12:52 28.48251 119.58287 27817 ft 403 kts 352°
2026-04-14 12:52 28.51055 119.58455 27566 ft 402 kts 352°
2026-04-14 12:53 28.53847 119.58628 27312 ft 400 kts 353°
2026-04-14 12:53 28.56575 119.58801 27064 ft 398 kts 353°
2026-04-14 12:53 28.59350 119.58978 26845 ft 396 kts 353°
2026-04-14 12:53 28.62092 119.59154 26605 ft 393 kts 353°
2026-04-14 12:54 28.64823 119.59327 26372 ft 393 kts 353°
2026-04-14 12:54 28.67551 119.59497 26129 ft 391 kts 353°
2026-04-14 12:54 28.70266 119.59665 25890 ft 389 kts 353°
2026-04-14 12:54 28.72969 119.59831 25661 ft 388 kts 353°
2026-04-14 12:55 28.75658 119.59994 25426 ft 386 kts 353°
2026-04-14 12:55 28.78338 119.60159 25189 ft 385 kts 353°
2026-04-14 12:55 28.81010 119.60325 24957 ft 384 kts 353°
2026-04-14 12:55 28.83669 119.60491 24728 ft 382 kts 354°
2026-04-14 12:56 28.86316 119.60655 24525 ft 381 kts 353°
2026-04-14 12:56 28.88963 119.60818 24298 ft 380 kts 353°
2026-04-14 12:56 28.91606 119.60981 24074 ft 379 kts 353°
2026-04-14 12:56 28.94236 119.61143 23851 ft 377 kts 354°
2026-04-14 12:57 28.96848 119.61306 23633 ft 376 kts 353°
2026-04-14 12:57 28.99419 119.61464 23396 ft 374 kts 353°
2026-04-14 12:57 29.02011 119.61626 23130 ft 373 kts 353°
2026-04-14 12:57 29.04595 119.61788 22873 ft 371 kts 354°
2026-04-14 12:58 29.07172 119.61949 22611 ft 370 kts 354°
2026-04-14 12:58 29.09735 119.62107 22378 ft 369 kts 354°
2026-04-14 12:58 29.12296 119.62262 22123 ft 368 kts 354°
2026-04-14 12:58 29.14851 119.62417 21870 ft 366 kts 354°
2026-04-14 12:59 29.17394 119.62573 21621 ft 365 kts 354°
2026-04-14 12:59 29.19921 119.62728 21368 ft 363 kts 354°
2026-04-14 12:59 29.22443 119.62882 21126 ft 362 kts 354°
2026-04-14 12:59 29.24948 119.63036 20880 ft 359 kts 354°
2026-04-14 13:00 29.27433 119.63188 20639 ft 357 kts 354°
2026-04-14 13:00 29.29916 119.63339 20399 ft 357 kts 354°
2026-04-14 13:00 29.32396 119.63490 20160 ft 356 kts 354°
2026-04-14 13:00 29.34867 119.63641 19942 ft 355 kts 354°
2026-04-14 13:01 29.37335 119.63793 19706 ft 354 kts 354°
2026-04-14 13:01 29.39787 119.63943 19473 ft 353 kts 354°
2026-04-14 13:01 29.42236 119.64090 19243 ft 351 kts 354°
2026-04-14 13:01 29.44674 119.64239 19007 ft 350 kts 355°
2026-04-14 13:02 29.47100 119.64388 18776 ft 348 kts 355°
2026-04-14 13:02 29.49514 119.64538 18552 ft 347 kts 355°
2026-04-14 13:02 29.51890 119.64685 18327 ft 345 kts 355°
2026-04-14 13:02 29.54283 119.64833 18085 ft 344 kts 355°
2026-04-14 13:03 29.56699 119.64963 17822 ft 342 kts 354°
2026-04-14 13:03 29.59033 119.65037 17588 ft 340 kts 353°
2026-04-14 13:03 29.61388 119.65081 17333 ft 338 kts 353°
2026-04-14 13:03 29.63739 119.65128 17073 ft 337 kts 354°
2026-04-14 13:04 29.66078 119.65237 16817 ft 337 kts 355°
2026-04-14 13:04 29.68415 119.65395 16567 ft 336 kts 355°
2026-04-14 13:04 29.70747 119.65574 16331 ft 335 kts 356°
2026-04-14 13:04 29.73073 119.65758 16074 ft 334 kts 356°
2026-04-14 13:05 29.75383 119.65934 15828 ft 333 kts 355°
2026-04-14 13:05 29.77692 119.66098 15578 ft 331 kts 355°
2026-04-14 13:05 29.79989 119.66229 15353 ft 329 kts 354°
2026-04-14 13:05 29.82245 119.66337 15112 ft 328 kts 354°
2026-04-14 13:06 29.84517 119.66517 14899 ft 328 kts
2026-04-14 13:06 29.86737 119.67229 14532 ft 336 kts 16°
2026-04-14 13:06 29.88838 119.68454 14100 ft 341 kts 21°
2026-04-14 13:06 29.90940 119.69734 13640 ft 341 kts 21°
2026-04-14 13:07 29.93039 119.71012 13174 ft 342 kts 21°
2026-04-14 13:07 29.95148 119.72295 12734 ft 342 kts 22°
2026-04-14 13:07 29.97251 119.73573 12287 ft 341 kts 22°
2026-04-14 13:07 29.99352 119.74846 11845 ft 341 kts 22°
2026-04-14 13:08 30.01445 119.76128 11410 ft 341 kts 25°
2026-04-14 13:08 30.03333 119.77831 10961 ft 349 kts 43°
2026-04-14 13:08 30.04773 119.80108 10500 ft 355 kts 59°
2026-04-14 13:08 30.05898 119.82633 10128 ft 353 kts 61°
2026-04-14 13:09 30.07019 119.85138 9716 ft 350 kts 60°
2026-04-14 13:09 30.08121 119.87585 9553 ft 336 kts 60°
2026-04-14 13:09 30.09190 119.89953 9197 ft 328 kts 60°
2026-04-14 13:09 30.10236 119.92273 8776 ft 323 kts 60°
2026-04-14 13:10 30.11264 119.94556 8253 ft 318 kts 60°
2026-04-14 13:10 30.12277 119.96804 7771 ft 313 kts 60°
2026-04-14 13:10 30.13280 119.98976 7321 ft 306 kts 55°
2026-04-14 13:10 30.14708 120.00690 6896 ft 291 kts 28°
2026-04-14 13:11 30.16541 120.01450 6521 ft 274 kts
2026-04-14 13:11 30.18402 120.01483 6155 ft 263 kts 354°
2026-04-14 13:11 30.20206 120.01404 5784 ft 256 kts 354°
2026-04-14 13:11 30.21951 120.01172 5391 ft 247 kts 338°
2026-04-14 13:12 30.23335 120.00130 5034 ft 235 kts 307°
2026-04-14 13:12 30.24062 119.98491 4666 ft 228 kts 282°
2026-04-14 13:12 30.24079 119.96678 4288 ft 227 kts 256°
2026-04-14 13:12 30.23405 119.95075 3928 ft 226 kts 230°
2026-04-14 13:13 30.22205 119.94007 3875 ft 212 kts 205°
2026-04-14 13:13 30.20828 119.93633 3876 ft 197 kts 181°
2026-04-14 13:13 30.19501 119.93911 3883 ft 194 kts 158°
2026-04-14 13:13 30.18271 119.94544 3881 ft 194 kts 156°
2026-04-14 13:14 30.17207 119.95476 3883 ft 195 kts 127°
2026-04-14 13:14 30.16476 119.96807 3885 ft 196 kts 122°
2026-04-14 13:14 30.15758 119.98142 3885 ft 196 kts 122°
2026-04-14 13:14 30.15040 119.99475 3873 ft 195 kts 122°
2026-04-14 13:15 30.14320 120.00805 3874 ft 195 kts 122°
2026-04-14 13:15 30.13596 120.02138 3879 ft 195 kts 122°
2026-04-14 13:15 30.12886 120.03448 3882 ft 195 kts 122°
2026-04-14 13:15 30.12169 120.04776 3883 ft 195 kts 122°
2026-04-14 13:16 30.11452 120.06105 3887 ft 195 kts 122°
2026-04-14 13:16 30.10736 120.07444 3885 ft 195 kts 120°
2026-04-14 13:16 30.10312 120.08927 3886 ft 196 kts 97°
2026-04-14 13:16 30.10397 120.10493 3886 ft 196 kts 75°
2026-04-14 13:17 30.10945 120.11937 3890 ft 197 kts 61°
2026-04-14 13:17 30.11576 120.13346 3888 ft 198 kts 61°
2026-04-14 13:17 30.12208 120.14760 3887 ft 198 kts 61°
2026-04-14 13:17 30.12839 120.16172 3886 ft 198 kts 61°
2026-04-14 13:18 30.13471 120.17587 3885 ft 198 kts 61°
2026-04-14 13:18 30.14092 120.18977 3889 ft 198 kts 61°
2026-04-14 13:18 30.14726 120.20398 3801 ft 198 kts 61°
2026-04-14 13:18 30.15353 120.21803 3588 ft 196 kts 61°
2026-04-14 13:19 30.15976 120.23200 3347 ft 194 kts 62°
2026-04-14 13:19 30.16592 120.24582 3091 ft 192 kts 62°
2026-04-14 13:19 30.17200 120.25947 2836 ft 190 kts 62°
2026-04-14 13:19 30.17796 120.27283 2584 ft 189 kts 62°
2026-04-14 13:20 30.18398 120.28635 2341 ft 188 kts 61°
2026-04-14 13:20 30.18995 120.29977 2090 ft 186 kts 61°
2026-04-14 13:20 30.19585 120.31303 1843 ft 184 kts 61°
2026-04-14 13:20 30.20159 120.32593 1605 ft 179 kts 60°
2026-04-14 13:21 30.20729 120.33874 1358 ft 178 kts 61°
2026-04-14 13:21 30.21267 120.35084 1130 ft 178 kts 61°
2026-04-14 13:21 30.21836 120.36353 894 ft 177 kts 61°
2026-04-14 13:21 30.22401 120.37622 673 ft 177 kts 64°
2026-04-14 13:22 30.22958 120.38893 462 ft 177 kts 60°
2026-04-14 13:22 30.23526 120.40154 237 ft 176 kts 64°
2026-04-14 13:22 30.24081 120.41413 62 ft 168 kts 63°
2026-04-14 13:22 30.24530 120.42457 61 ft 129 kts 64°
2026-04-14 13:23 30.24970 120.43521 391 ft 158 kts 64°
2026-04-14 13:23 30.25447 120.44678 982 ft 162 kts 63°
2026-04-14 13:23 30.25890 120.45769 1657 ft 161 kts 63°
2026-04-14 13:23 30.26397 120.47045 2092 ft 182 kts 63°
2026-04-14 13:24 30.27002 120.48433 2522 ft 203 kts 61°
2026-04-14 13:24 30.28366 120.51401 4155 ft 215 kts 60°
2026-04-14 13:24 30.29087 120.52965 4937 ft 224 kts 59°
2026-04-14 13:25 30.29835 120.54586 5615 ft 233 kts 59°
2026-04-14 13:25 30.30599 120.56253 5823 ft 234 kts 59°
2026-04-14 13:26 30.32988 120.61107 5882 ft 229 kts 38°
2026-04-14 13:26 30.34352 120.61952 5809 ft 221 kts
2026-04-14 13:26 30.35830 120.61845 5554 ft 210 kts 335°
2026-04-14 13:26 30.36990 120.60956 5307 ft 202 kts 308°
2026-04-14 13:27 30.37646 120.59522 5060 ft 199 kts 281°
2026-04-14 13:27 30.37640 120.57956 4825 ft 199 kts 257°
2026-04-14 13:27 30.37247 120.56414 4569 ft 200 kts 250°
2026-04-14 13:27 30.36689 120.54933 4312 ft 201 kts 246°
2026-04-14 13:28 30.36080 120.53476 4066 ft 202 kts 245°
2026-04-14 13:28 30.35460 120.52017 3907 ft 203 kts 244°
2026-04-14 13:28 30.34839 120.50549 3880 ft 203 kts 245°
2026-04-14 13:28 30.34217 120.49072 3880 ft 204 kts 245°
2026-04-14 13:29 30.33598 120.47588 3882 ft 204 kts 245°
2026-04-14 13:29 30.32982 120.46108 3883 ft 204 kts 245°
2026-04-14 13:29 30.32367 120.44624 3882 ft 204 kts 245°
2026-04-14 13:29 30.31761 120.43161 3882 ft 204 kts 245°
2026-04-14 13:30 30.31149 120.41681 3879 ft 204 kts 245°
2026-04-14 13:30 30.30530 120.40182 3882 ft 204 kts 245°
2026-04-14 13:30 30.29928 120.38723 3880 ft 204 kts 245°
2026-04-14 13:30 30.29317 120.37241 3880 ft 204 kts 245°
2026-04-14 13:31 30.28705 120.35754 3883 ft 204 kts 245°
2026-04-14 13:31 30.28093 120.34269 3884 ft 204 kts 245°
2026-04-14 13:31 30.27481 120.32788 3883 ft 204 kts 245°
2026-04-14 13:31 30.26865 120.31302 3884 ft 205 kts 245°
2026-04-14 13:32 30.26250 120.29818 3882 ft 204 kts 245°
2026-04-14 13:32 30.25654 120.28379 3875 ft 191 kts 245°
2026-04-14 13:32 30.25087 120.27012 3882 ft 187 kts 245°
2026-04-14 13:32 30.24532 120.25677 3877 ft 186 kts 245°
2026-04-14 13:33 30.23973 120.24327 3882 ft 186 kts 245°
2026-04-14 13:33 30.23416 120.22981 3884 ft 186 kts 245°
2026-04-14 13:33 30.22859 120.21633 3887 ft 186 kts 245°
2026-04-14 13:33 30.22303 120.20287 3890 ft 186 kts 245°
2026-04-14 13:34 30.21187 120.17593 3890 ft 185 kts 245°
2026-04-14 13:34 30.20445 120.16386 3887 ft 188 kts 221°
2026-04-14 13:34 30.19241 120.15810 3890 ft 192 kts 187°
2026-04-14 13:35 30.18355 120.15908 3892 ft 194 kts 168°
2026-04-14 13:35 30.16737 120.16839 3895 ft 197 kts 142°
2026-04-14 13:35 30.15838 120.18037 3889 ft 198 kts 122°
2026-04-14 13:35 30.15337 120.19501 3832 ft 199 kts 102°
2026-04-14 13:36 30.15251 120.20558 3733 ft 198 kts 88°
2026-04-14 13:36 30.15516 120.22116 3528 ft 196 kts 68°
2026-04-14 13:36 30.16318 120.23969 3207 ft 193 kts 62°
2026-04-14 13:36 30.16724 120.24878 3043 ft 192 kts 61°
2026-04-14 13:37 30.17330 120.26238 2785 ft 190 kts 62°
2026-04-14 13:37 30.17938 120.27601 2533 ft 189 kts 61°
2026-04-14 13:37 30.18509 120.28886 2309 ft 184 kts 61°
2026-04-14 13:37 30.19073 120.30155 2063 ft 168 kts 60°
2026-04-14 13:38 30.19571 120.31275 1848 ft 145 kts 60°
2026-04-14 13:38 30.20004 120.32249 1667 ft 134 kts 59°
2026-04-14 13:38 30.20422 120.33188 1474 ft 130 kts 60°
2026-04-14 13:38 30.20831 120.34106 1323 ft 128 kts 60°
2026-04-14 13:39 30.21235 120.35015 1147 ft 127 kts 60°
2026-04-14 13:39 30.21639 120.35921 977 ft 126 kts 60°
2026-04-14 13:39 30.22045 120.36825 811 ft 126 kts 61°
2026-04-14 13:39 30.22441 120.37730 668 ft 127 kts 62°
2026-04-14 13:40 30.22840 120.38640 500 ft 127 kts 60°
2026-04-14 13:40 30.23252 120.39543 313 ft 127 kts 61°
2026-04-14 13:40 30.23655 120.40445 155 ft 126 kts 62°
2026-04-14 13:40 30.24037 120.41329 35 ft 111 kts 64°
2026-04-14 13:41 30.24326 120.41973 33 ft 67 kts 62°
2026-04-14 13:41 30.24471 120.42306 31 ft 38 kts 63°
2026-04-14 13:41 30.24551 120.42515 29 ft 25 kts 78°
2026-04-14 13:41 30.24553 120.42716 31 ft 16 kts 85°
2026-04-14 13:42 30.24542 120.42826 31 ft 14 kts 95°
2026-04-14 13:42 30.24540 120.42947 32 ft 10 kts 110°
2026-04-14 13:42 30.24469 120.42984 32 ft 11 kts 159°
2026-04-14 13:42 30.24412 120.43017 32 ft 11 kts 147°
2026-04-14 13:43 30.24367 120.43046 32 ft 6 kts 153°
2026-04-14 13:43 30.24340 120.43062 32 ft 1 kts 154°